Weather History for Mandan, ND

Change the Weather History Date:

Friday, March 14, 2014

  Actual Average (KBIS) Record (KBIS)
Temperature  
Mean Temperature 35 °F 29 °F  
Max Temperature 42 °F 39 °F 72 °F (1935)
Min Temperature 28 °F 19 °F -35 °F (1897)
Degree Days  
Heating Degree Days 30 36  
Month to date heating degree days 546  
Since 1 July heating degree days 6977  
Cooling Degree Days 0 0  
Month to date cooling degree days 0  
Year to date cooling degree days 0  
Moisture  
Dew Point 27 °F    
Average Humidity 74    
Maximum Humidity 93    
Minimum Humidity 49    
Precipitation  
Precipitation 0.00 in 0.02 in 0.58 in (1919)
Month to date precipitation 0.35  
Year to date precipitation 1.29  
Snow  
Snow 0.00 in 0.30 in 6.10 in (1953)
Month to date snowfall 4.4  
Since 1 July snowfall 41.9  
Snow Depth -    
Sea Level Pressure  
Sea Level Pressure 29.82 in    
Wind  
Wind Speed 16 mph (NNW)    
Max Wind Speed 22 mph    
Max Gust Speed 31 mph    
Visibility 10 miles    
Events      
T = Trace of Precipitation, MM = Missing Value Source: NWS Daily Summary

Daily Weather History Graph

Daily Weather History Graph

Search for Another Location

Airport:

Trip Planner

Search our weather history database for the weather conditions in past years. The results will help you decide how hot, cold, wet, or windy it might be!

Date:

Astronomy

Mar. 14, 2014 Rise Set
Actual Time 7:58 AM CDT 7:47 PM CDT
Civil Twilight 7:28 AM CDT 8:18 PM CDT
Nautical Twilight 6:52 AM CDT 8:53 PM CDT
Astronomical Twilight 6:17 AM CDT 9:29 PM CDT
Moon 6:07 PM CDT (3/14) 6:44 AM CDT (3/14)
Length of Visible Light 12h 50m
Length of Day
11h 49m
Waxing Gibbous, 96% of the Moon is Illuminated
Mar 14
Waxing Gibbous
Mar 16
Full
Mar 23
Last Quarter
Mar 30
New
Apr 7
First Quarter

Hourly Weather History & Observations

Time (CDT) Temp. Windchill Dew Point Humidity Pressure Visibility Wind Dir Wind Speed Gust Speed Precip Events Conditions
12:15 AM 35.6 °F 26.6 °F 28.4 °F 75% 29.73 in 10.0 mi NW 13.8 mph 21.9 mph N/A   Clear
12:35 AM 33.8 °F 23.9 °F 28.4 °F 81% 29.72 in 10.0 mi WNW 15.0 mph 20.7 mph N/A   Clear
12:55 AM 32.0 °F 21.6 °F 28.4 °F 87% 29.72 in 10.0 mi WNW 15.0 mph - N/A   Clear
1:15 AM 32.0 °F 21.2 °F 28.4 °F 87% 29.72 in 10.0 mi WNW 16.1 mph 23.0 mph N/A   Clear
1:35 AM 32.0 °F 21.6 °F 28.4 °F 87% 29.72 in 10.0 mi WNW 15.0 mph 21.9 mph N/A   Clear
1:55 AM 32.0 °F 21.6 °F 28.4 °F 87% 29.73 in 10.0 mi WNW 15.0 mph - N/A   Clear
2:15 AM 32.0 °F 20.8 °F 28.4 °F 87% 29.73 in 10.0 mi WNW 17.3 mph - N/A   Clear
2:35 AM 32.0 °F 20.5 °F 28.4 °F 87% 29.73 in 10.0 mi WNW 18.4 mph 24.2 mph N/A   Clear
2:55 AM 32.0 °F 20.5 °F 28.4 °F 87% 29.73 in 10.0 mi WNW 18.4 mph 24.2 mph N/A   Clear
3:15 AM 32.0 °F 19.5 °F 28.4 °F 87% 29.74 in 10.0 mi WNW 21.9 mph 25.3 mph N/A   Clear
3:35 AM 32.0 °F 19.5 °F 26.6 °F 80% 29.74 in 10.0 mi WNW 21.9 mph 28.8 mph N/A   Clear
3:55 AM 32.0 °F 20.1 °F 26.6 °F 80% 29.74 in 10.0 mi WNW 19.6 mph 27.6 mph N/A   Scattered Clouds
4:15 AM 32.0 °F 20.1 °F 26.6 °F 80% 29.75 in 10.0 mi WNW 19.6 mph - N/A   Overcast
4:35 AM 32.0 °F 19.8 °F 26.6 °F 80% 29.75 in 10.0 mi WNW 20.7 mph 28.8 mph N/A   Overcast
4:55 AM 32.0 °F 19.8 °F 26.6 °F 80% 29.75 in 10.0 mi WNW 20.7 mph 26.5 mph N/A   Overcast
5:15 AM 33.8 °F 22.2 °F 26.6 °F 75% 29.75 in 10.0 mi WNW 20.7 mph 31.1 mph N/A   Overcast
5:35 AM 32.0 °F 21.2 °F 26.6 °F 80% 29.76 in 10.0 mi WNW 16.1 mph 23.0 mph N/A   Overcast
5:55 AM 32.0 °F 20.5 °F 26.6 °F 80% 29.76 in 10.0 mi WNW 18.4 mph - N/A   Overcast
6:15 AM 32.0 °F 20.5 °F 26.6 °F 80% 29.77 in 10.0 mi WNW 18.4 mph 25.3 mph N/A   Scattered Clouds
6:35 AM 32.0 °F 19.8 °F 26.6 °F 80% 29.77 in 10.0 mi WNW 20.7 mph 25.3 mph N/A   Clear
6:55 AM 32.0 °F 21.6 °F 24.8 °F 75% 29.78 in 10.0 mi WNW 15.0 mph - N/A   Clear
7:15 AM 32.0 °F 21.6 °F 24.8 °F 75% 29.79 in 10.0 mi WNW 15.0 mph - N/A   Clear
7:35 AM 30.2 °F 20.2 °F 24.8 °F 80% 29.79 in 10.0 mi WNW 12.7 mph - N/A   Partly Cloudy
7:55 AM 28.4 °F 17.0 °F 24.8 °F 86% 29.80 in 10.0 mi WNW 15.0 mph - N/A   Clear
8:15 AM 28.4 °F 15.8 °F 24.8 °F 86% 29.80 in 10.0 mi WNW 18.4 mph 21.9 mph N/A   Clear
8:35 AM 30.2 °F 17.8 °F 24.8 °F 80% 29.80 in 10.0 mi WNW 19.6 mph 25.3 mph N/A   Clear
8:55 AM 32.0 °F 19.8 °F 24.8 °F 75% 29.81 in 10.0 mi WNW 20.7 mph 28.8 mph N/A   Clear
9:15 AM 32.0 °F 19.8 °F 24.8 °F 75% 29.82 in 10.0 mi WNW 20.7 mph 26.5 mph N/A   Clear
9:35 AM 32.0 °F 20.5 °F 24.8 °F 75% 29.82 in 10.0 mi NW 18.4 mph 26.5 mph N/A   Clear
9:55 AM 33.8 °F 22.8 °F 26.6 °F 75% 29.83 in 10.0 mi NW 18.4 mph 26.5 mph N/A   Clear
10:15 AM 35.6 °F 24.5 °F 26.6 °F 70% 29.83 in 10.0 mi NW 20.7 mph 25.3 mph N/A   Clear
10:35 AM 37.4 °F 28.9 °F 26.6 °F 65% 29.83 in 10.0 mi WNW 13.8 mph 23.0 mph N/A   Clear
10:55 AM 37.4 °F 28.2 °F 26.6 °F 65% 29.83 in 10.0 mi WNW 16.1 mph 24.2 mph N/A   Clear
11:15 AM 39.2 °F 30.2 °F 26.6 °F 61% 29.83 in 10.0 mi NW 17.3 mph - N/A   Clear
11:35 AM 39.2 °F 31.2 °F 28.4 °F 65% 29.83 in 10.0 mi NW 13.8 mph - N/A   Partly Cloudy
11:55 AM 39.2 °F 30.5 °F 28.4 °F 65% 29.84 in 10.0 mi NNW 16.1 mph 21.9 mph N/A   Partly Cloudy
12:15 PM 41.0 °F 32.5 °F 28.4 °F 61% 29.84 in 10.0 mi NNW 17.3 mph - N/A   Partly Cloudy
12:35 PM 41.0 °F 32.5 °F 28.4 °F 61% 29.84 in 10.0 mi NNW 17.3 mph 26.5 mph N/A   Scattered Clouds
12:55 PM 41.0 °F 33.1 °F 28.4 °F 61% 29.85 in 10.0 mi NNW 15.0 mph 19.6 mph N/A   Mostly Cloudy
1:15 PM 41.0 °F 31.9 °F 28.4 °F 61% 29.84 in 10.0 mi NW 19.6 mph 24.2 mph N/A   Mostly Cloudy
1:35 PM 41.0 °F 32.2 °F 26.6 °F 57% 29.85 in 10.0 mi NW 18.4 mph 27.6 mph N/A   Mostly Cloudy
1:55 PM 41.0 °F 32.2 °F 28.4 °F 61% 29.85 in 10.0 mi NNW 18.4 mph 23.0 mph N/A   Mostly Cloudy
2:15 PM 41.0 °F 33.1 °F 28.4 °F 61% 29.85 in 10.0 mi NW 15.0 mph 20.7 mph N/A   Scattered Clouds
2:35 PM 41.0 °F 32.5 °F 28.4 °F 61% 29.85 in 10.0 mi NNW 17.3 mph 21.9 mph N/A   Scattered Clouds
2:55 PM 41.0 °F 33.1 °F 26.6 °F 57% 29.84 in 10.0 mi NNW 15.0 mph 19.6 mph N/A   Partly Cloudy
3:15 PM 41.0 °F 33.5 °F 26.6 °F 57% 29.84 in 10.0 mi WNW 13.8 mph 20.7 mph N/A   Partly Cloudy
3:35 PM 41.0 °F 34.3 °F 26.6 °F 57% 29.84 in 10.0 mi NW 11.5 mph 16.1 mph N/A   Partly Cloudy
3:55 PM 42.8 °F 36.2 °F 26.6 °F 53% 29.84 in 10.0 mi North 12.7 mph - N/A   Partly Cloudy
4:15 PM 42.8 °F 36.2 °F 26.6 °F 53% 29.84 in 10.0 mi North 12.7 mph 19.6 mph N/A   Partly Cloudy
4:35 PM 42.8 °F 35.8 °F 26.6 °F 53% 29.84 in 10.0 mi North 13.8 mph - N/A   Partly Cloudy
4:55 PM 41.0 °F 35.2 °F 24.8 °F 53% 29.84 in 10.0 mi NNW 9.2 mph - N/A   Partly Cloudy
5:15 PM 41.0 °F 34.3 °F 23.0 °F 49% 29.84 in 10.0 mi North 11.5 mph 16.1 mph N/A   Mostly Cloudy
5:35 PM 42.8 °F 36.6 °F 26.6 °F 53% 29.84 in 10.0 mi North 11.5 mph - N/A   Mostly Cloudy
5:55 PM 41.0 °F 36.4 °F 24.8 °F 53% 29.84 in 10.0 mi NNE 6.9 mph - N/A   Clear
6:15 PM 41.0 °F 34.7 °F 26.6 °F 57% 29.85 in 10.0 mi ENE 10.4 mph - N/A   Clear
6:35 PM 41.0 °F 34.7 °F 28.4 °F 61% 29.86 in 10.0 mi NE 10.4 mph - N/A   Clear
6:55 PM 39.2 °F 32.0 °F 28.4 °F 65% 29.86 in 10.0 mi NE 11.5 mph - N/A   Clear
7:15 PM 35.6 °F 27.5 °F 26.6 °F 70% 29.87 in 10.0 mi ENE 11.5 mph - N/A   Clear
7:35 PM 35.6 °F 26.6 °F 26.6 °F 70% 29.88 in 10.0 mi ENE 13.8 mph - N/A   Clear
7:55 PM 32.0 °F 22.1 °F 26.6 °F 80% 29.88 in 10.0 mi ENE 13.8 mph - N/A   Clear
8:15 PM 32.0 °F 23.0 °F 26.6 °F 80% 29.89 in 10.0 mi ENE 11.5 mph - N/A   Partly Cloudy
8:35 PM 32.0 °F 22.5 °F 26.6 °F 80% 29.89 in 10.0 mi ENE 12.7 mph - N/A   Scattered Clouds
8:55 PM 32.0 °F 22.5 °F 26.6 °F 80% 29.88 in 10.0 mi East 12.7 mph - N/A   Scattered Clouds
9:15 PM 30.2 °F 20.8 °F 26.6 °F 86% 29.89 in 10.0 mi East 11.5 mph - N/A   Mostly Cloudy
9:35 PM 30.2 °F 21.3 °F 26.6 °F 86% 29.89 in 10.0 mi East 10.4 mph - N/A   Overcast
9:55 PM 28.4 °F 19.7 °F 26.6 °F 93% 29.89 in 10.0 mi East 9.2 mph - N/A   Overcast
10:15 PM 28.4 °F 20.4 °F 26.6 °F 93% 29.90 in 10.0 mi East 8.1 mph - N/A   Mostly Cloudy
10:35 PM 28.4 °F 18.0 °F 26.6 °F 93% 29.90 in 10.0 mi East 12.7 mph - N/A   Mostly Cloudy
10:55 PM 28.4 °F 19.1 °F 26.6 °F 93% 29.91 in 10.0 mi East 10.4 mph - N/A   Mostly Cloudy
11:15 PM 28.4 °F 19.1 °F 26.6 °F 93% 29.90 in 10.0 mi East 10.4 mph - N/A   Mostly Cloudy
11:35 PM 28.4 °F 19.7 °F 26.6 °F 93% 29.91 in 10.0 mi East 9.2 mph - N/A   Mostly Cloudy
11:55 PM 28.4 °F 21.2 °F 26.6 °F 93% 29.91 in 10.0 mi East 6.9 mph - N/A   Overcast